#datetime,building,power
2023-02-16T00:01:00,cen,8.39
2023-02-16T00:03:00,cen,8.41
2023-02-16T00:04:00,cen,3.59
2023-02-16T00:06:00,cen,8.41
2023-02-16T00:08:00,cen,8.39
2023-02-16T00:09:00,cen,4.80
2023-02-16T00:11:00,cen,7.19
2023-02-16T00:13:00,cen,8.41
2023-02-16T00:15:00,cen,8.39
2023-02-16T00:17:00,cen,7.21
2023-02-16T00:18:00,cen,5.99
2023-02-16T00:20:00,cen,7.21
2023-02-16T00:21:00,cen,3.60
2023-02-16T00:23:00,cen,9.59
2023-02-16T00:24:00,cen,3.60
2023-02-16T00:26:00,cen,8.39
2023-02-16T00:27:00,cen,3.60
2023-02-16T00:29:00,cen,8.39
2023-02-16T00:31:00,cen,8.41
2023-02-16T00:32:00,cen,4.80
2023-02-16T00:34:00,cen,19.19
2023-02-16T00:35:00,cen,12.00
2023-02-16T00:37:00,cen,24.01
2023-02-16T00:38:00,cen,8.39
2023-02-16T00:39:00,cen,3.60
2023-02-16T00:41:00,cen,7.21
2023-02-16T00:43:00,cen,5.99
2023-02-16T00:44:00,cen,4.80
2023-02-16T00:46:00,cen,7.19
2023-02-16T00:47:00,cen,3.60
2023-02-16T00:49:00,cen,7.21
2023-02-16T00:51:00,cen,7.19
2023-02-16T00:52:00,cen,3.60
2023-02-16T00:54:00,cen,9.59
2023-02-16T00:56:00,cen,7.21
2023-02-16T00:58:00,cen,8.39
2023-02-16T00:59:00,cen,3.60
2023-02-16T01:01:00,cen,7.21
2023-02-16T01:03:00,cen,10.80
2023-02-16T01:05:00,cen,7.19
2023-02-16T01:06:00,cen,4.80
2023-02-16T01:08:00,cen,8.39
2023-02-16T01:10:00,cen,8.41
2023-02-16T01:12:00,cen,9.59
2023-02-16T01:13:00,cen,3.60
2023-02-16T01:15:00,cen,9.59
2023-02-16T01:17:00,cen,8.41
2023-02-16T01:18:00,cen,4.80
2023-02-16T01:20:00,cen,9.59
2023-02-16T01:22:00,cen,9.59
2023-02-16T01:23:00,cen,3.60
2023-02-16T01:24:00,cen,4.80
2023-02-16T01:26:00,cen,10.80
2023-02-16T01:28:00,cen,8.39
2023-02-16T01:29:00,cen,3.60
2023-02-16T01:31:00,cen,9.61
2023-02-16T01:32:00,cen,3.59
2023-02-16T01:34:00,cen,9.61
2023-02-16T01:36:00,cen,8.39
2023-02-16T01:37:00,cen,4.80
2023-02-16T01:39:00,cen,7.19
2023-02-16T01:41:00,cen,8.41
2023-02-16T01:43:00,cen,8.39
2023-02-16T01:45:00,cen,8.41
2023-02-16T01:47:00,cen,8.39
2023-02-16T01:48:00,cen,3.60
2023-02-16T01:50:00,cen,9.59
2023-02-16T01:51:00,cen,3.60
2023-02-16T01:53:00,cen,8.39
2023-02-16T01:55:00,cen,7.21
2023-02-16T01:57:00,cen,8.39
2023-02-16T01:59:00,cen,10.81
2023-02-16T02:00:00,cen,4.79
2023-02-16T02:02:00,cen,9.61
2023-02-16T02:03:00,cen,3.59
2023-02-16T02:05:00,cen,8.41
2023-02-16T02:07:00,cen,10.80
2023-02-16T02:09:00,cen,8.41
2023-02-16T02:11:00,cen,9.59
2023-02-16T02:12:00,cen,3.60
2023-02-16T02:14:00,cen,9.59
2023-02-16T02:15:00,cen,3.60
2023-02-16T02:17:00,cen,7.19
2023-02-16T02:19:00,cen,8.41
2023-02-16T02:21:00,cen,7.19
2023-02-16T02:23:00,cen,9.61
2023-02-16T02:25:00,cen,7.19
2023-02-16T02:26:00,cen,3.60
2023-02-16T02:28:00,cen,8.39
2023-02-16T02:30:00,cen,8.41
2023-02-16T02:31:00,cen,4.79
2023-02-16T02:33:00,cen,7.21
2023-02-16T02:34:00,cen,3.60
2023-02-16T02:36:00,cen,9.59
2023-02-16T02:38:00,cen,10.80
2023-02-16T02:40:00,cen,7.21
2023-02-16T02:42:00,cen,8.39
2023-02-16T02:43:00,cen,4.80
2023-02-16T02:45:00,cen,7.21
2023-02-16T02:46:00,cen,4.79
2023-02-16T02:48:00,cen,8.41
2023-02-16T02:49:00,cen,3.59
2023-02-16T02:51:00,cen,7.21
2023-02-16T02:52:00,cen,3.60
2023-02-16T02:54:00,cen,9.59
2023-02-16T02:56:00,cen,7.21
2023-02-16T02:58:00,cen,8.39
2023-02-16T02:59:00,cen,4.80
2023-02-16T03:01:00,cen,8.39
2023-02-16T03:02:00,cen,4.80
2023-02-16T03:04:00,cen,8.39
2023-02-16T03:06:00,cen,9.61
2023-02-16T03:07:00,cen,3.59
2023-02-16T03:09:00,cen,7.21
2023-02-16T03:11:00,cen,9.59
2023-02-16T03:12:00,cen,3.60
2023-02-16T03:14:00,cen,8.39
2023-02-16T03:16:00,cen,7.21
2023-02-16T03:18:00,cen,9.59
2023-02-16T03:19:00,cen,3.60
2023-02-16T03:21:00,cen,8.41
2023-02-16T03:22:00,cen,3.59
2023-02-16T03:23:00,cen,4.80
2023-02-16T03:25:00,cen,8.39
2023-02-16T03:27:00,cen,8.41
2023-02-16T03:29:00,cen,8.39
2023-02-16T03:30:00,cen,4.80
2023-02-16T03:32:00,cen,7.21
2023-02-16T03:33:00,cen,7.21
2023-02-16T03:34:00,cen,8.39
2023-02-16T03:36:00,cen,8.39
2023-02-16T03:37:00,cen,3.60
2023-02-16T03:39:00,cen,8.41
2023-02-16T03:41:00,cen,7.19
2023-02-16T03:43:00,cen,8.41
2023-02-16T03:45:00,cen,8.39
2023-02-16T03:46:00,cen,2.40
2023-02-16T03:48:00,cen,7.19
2023-02-16T03:50:00,cen,9.61
2023-02-16T03:52:00,cen,21.59
2023-02-16T03:53:00,cen,13.20
2023-02-16T03:55:00,cen,24.01
2023-02-16T03:57:00,cen,12.00
2023-02-16T03:59:00,cen,8.39
2023-02-16T04:01:00,cen,7.21
2023-02-16T04:03:00,cen,8.39
2023-02-16T04:05:00,cen,8.41
2023-02-16T04:07:00,cen,9.59
2023-02-16T04:09:00,cen,12.00
2023-02-16T04:10:00,cen,4.80
2023-02-16T04:12:00,cen,12.00
2023-02-16T04:13:00,cen,6.01
2023-02-16T04:15:00,cen,10.80
2023-02-16T04:16:00,cen,3.60
2023-02-16T04:18:00,cen,10.80
2023-02-16T04:20:00,cen,10.80
2023-02-16T04:22:00,cen,13.21
2023-02-16T04:24:00,cen,15.60
2023-02-16T04:26:00,cen,12.00
2023-02-16T04:28:00,cen,12.00
2023-02-16T04:30:00,cen,10.80
2023-02-16T04:32:00,cen,10.81
2023-02-16T04:33:00,cen,8.39
2023-02-16T04:35:00,cen,9.59
2023-02-16T04:37:00,cen,12.01
2023-02-16T04:39:00,cen,9.59
2023-02-16T04:41:00,cen,9.59
2023-02-16T04:42:00,cen,6.01
2023-02-16T04:44:00,cen,9.59
2023-02-16T04:46:00,cen,10.80
2023-02-16T04:47:00,cen,6.01
2023-02-16T04:48:00,cen,4.80
2023-02-16T04:50:00,cen,7.19
2023-02-16T04:51:00,cen,4.80
2023-02-16T04:53:00,cen,8.39
2023-02-16T04:55:00,cen,8.41
2023-02-16T04:57:00,cen,8.39
2023-02-16T04:58:00,cen,4.80
2023-02-16T05:00:00,cen,9.59
2023-02-16T05:02:00,cen,8.41
2023-02-16T05:03:00,cen,4.79
2023-02-16T05:05:00,cen,8.41
2023-02-16T05:07:00,cen,8.39
2023-02-16T05:09:00,cen,9.61
2023-02-16T05:11:00,cen,9.59
2023-02-16T05:12:00,cen,3.60
2023-02-16T05:14:00,cen,8.39
2023-02-16T05:16:00,cen,9.61
2023-02-16T05:18:00,cen,8.39
2023-02-16T05:20:00,cen,8.39
2023-02-16T05:21:00,cen,6.01
2023-02-16T05:23:00,cen,8.41
2023-02-16T05:25:00,cen,8.39
2023-02-16T05:27:00,cen,8.39
2023-02-16T05:28:00,cen,4.80
2023-02-16T05:30:00,cen,8.41
2023-02-16T05:31:00,cen,3.59
2023-02-16T05:33:00,cen,9.61
2023-02-16T05:34:00,cen,4.79
2023-02-16T05:36:00,cen,8.41
2023-02-16T05:38:00,cen,8.39
2023-02-16T05:39:00,cen,8.39
2023-02-16T05:40:00,cen,9.61
2023-02-16T05:41:00,cen,3.59
2023-02-16T05:43:00,cen,9.61
2023-02-16T05:44:00,cen,3.59
2023-02-16T05:46:00,cen,9.61
2023-02-16T05:48:00,cen,8.39
2023-02-16T05:50:00,cen,8.41
2023-02-16T05:52:00,cen,7.19
2023-02-16T05:53:00,cen,2.40
2023-02-16T05:54:00,cen,4.80
2023-02-16T05:56:00,cen,9.59
2023-02-16T05:58:00,cen,8.41
2023-02-16T06:00:00,cen,9.59
2023-02-16T06:01:00,cen,3.60
2023-02-16T06:02:00,cen,4.79
2023-02-16T06:04:00,cen,10.81
2023-02-16T06:06:00,cen,12.00
2023-02-16T06:07:00,cen,4.79
2023-02-16T06:09:00,cen,9.61
2023-02-16T06:11:00,cen,10.80
2023-02-16T06:12:00,cen,4.80
2023-02-16T06:13:00,cen,4.79
2023-02-16T06:15:00,cen,9.61
2023-02-16T06:17:00,cen,9.59
2023-02-16T06:19:00,cen,9.61
2023-02-16T06:20:00,cen,4.79
2023-02-16T06:21:00,cen,4.80
2023-02-16T06:22:00,cen,3.60
2023-02-16T06:24:00,cen,9.59
2023-02-16T06:26:00,cen,16.80
2023-02-16T06:27:00,cen,13.20
2023-02-16T06:29:00,cen,27.60
2023-02-16T06:30:00,cen,14.40
2023-02-16T06:32:00,cen,10.81
2023-02-16T06:33:00,cen,4.79
2023-02-16T06:35:00,cen,9.61
2023-02-16T06:36:00,cen,4.79
2023-02-16T06:38:00,cen,8.41
2023-02-16T06:39:00,cen,4.79
2023-02-16T06:41:00,cen,9.61
2023-02-16T06:43:00,cen,12.00
2023-02-16T06:44:00,cen,4.80
2023-02-16T06:46:00,cen,9.59
2023-02-16T06:47:00,cen,3.60
2023-02-16T06:48:00,cen,4.79
2023-02-16T06:49:00,cen,3.60
2023-02-16T06:51:00,cen,10.80
2023-02-16T06:53:00,cen,9.61
2023-02-16T06:54:00,cen,4.79
2023-02-16T06:56:00,cen,9.61
2023-02-16T06:58:00,cen,12.00
2023-02-16T06:59:00,cen,4.80
2023-02-16T07:01:00,cen,9.59
2023-02-16T07:02:00,cen,4.80
2023-02-16T07:04:00,cen,10.80
2023-02-16T07:06:00,cen,15.60
2023-02-16T07:08:00,cen,14.40
2023-02-16T07:10:00,cen,14.40
2023-02-16T07:12:00,cen,15.60
2023-02-16T07:14:00,cen,16.80
2023-02-16T07:16:00,cen,14.40
2023-02-16T07:18:00,cen,14.40
2023-02-16T07:19:00,cen,7.21
2023-02-16T07:20:00,cen,7.19
2023-02-16T07:22:00,cen,14.40
2023-02-16T07:24:00,cen,14.40
2023-02-16T07:25:00,cen,8.41
2023-02-16T07:27:00,cen,15.60
2023-02-16T07:29:00,cen,14.40
2023-02-16T07:30:00,cen,7.19
2023-02-16T07:32:00,cen,14.40
2023-02-16T07:34:00,cen,14.40
2023-02-16T07:35:00,cen,7.21
2023-02-16T07:37:00,cen,15.60
2023-02-16T07:38:00,cen,7.19
2023-02-16T07:40:00,cen,14.40
2023-02-16T07:42:00,cen,14.40
2023-02-16T07:43:00,cen,7.21
2023-02-16T07:45:00,cen,16.80
2023-02-16T07:47:00,cen,14.40
2023-02-16T07:48:00,cen,7.19
2023-02-16T07:50:00,cen,15.60
2023-02-16T07:52:00,cen,14.40
2023-02-16T07:53:00,cen,7.21
2023-02-16T07:55:00,cen,15.60
2023-02-16T07:57:00,cen,14.40
2023-02-16T07:59:00,cen,16.80
2023-02-16T08:00:00,cen,7.19
2023-02-16T08:02:00,cen,16.80
2023-02-16T08:04:00,cen,14.40
2023-02-16T08:05:00,cen,8.39
2023-02-16T08:07:00,cen,15.60
2023-02-16T08:08:00,cen,12.01
2023-02-16T08:10:00,cen,17.99
2023-02-16T08:12:00,cen,18.00
2023-02-16T08:13:00,cen,9.61
2023-02-16T08:14:00,cen,10.80
2023-02-16T08:16:00,cen,22.79
2023-02-16T08:17:00,cen,10.81
2023-02-16T08:19:00,cen,22.79
2023-02-16T08:21:00,cen,22.81
2023-02-16T08:22:00,cen,12.00
2023-02-16T08:24:00,cen,27.60
2023-02-16T08:25:00,cen,10.80
2023-02-16T08:27:00,cen,22.81
2023-02-16T08:29:00,cen,23.99
2023-02-16T08:30:00,cen,12.00
2023-02-16T08:32:00,cen,24.01
2023-02-16T08:34:00,cen,23.99
2023-02-16T08:36:00,cen,31.20
2023-02-16T08:38:00,cen,30.00
2023-02-16T08:39:00,cen,15.60
2023-02-16T08:41:00,cen,43.20
2023-02-16T08:43:00,cen,48.00
2023-02-16T08:45:00,cen,42.00
2023-02-16T08:46:00,cen,14.40
2023-02-16T08:48:00,cen,30.00
2023-02-16T08:49:00,cen,14.40
2023-02-16T08:51:00,cen,28.80
2023-02-16T08:52:00,cen,15.60
2023-02-16T08:54:00,cen,28.80
2023-02-16T08:56:00,cen,31.20
2023-02-16T08:57:00,cen,15.60
2023-02-16T08:59:00,cen,28.80
2023-02-16T09:01:00,cen,30.00
2023-02-16T09:03:00,cen,28.80
2023-02-16T09:05:00,cen,31.20
2023-02-16T09:06:00,cen,14.40
2023-02-16T09:08:00,cen,31.20
2023-02-16T09:10:00,cen,32.40
2023-02-16T09:11:00,cen,14.40
2023-02-16T09:13:00,cen,27.60
2023-02-16T09:15:00,cen,27.60
2023-02-16T09:17:00,cen,28.81
2023-02-16T09:19:00,cen,27.60
2023-02-16T09:21:00,cen,30.00
2023-02-16T09:23:00,cen,28.80
2023-02-16T09:25:00,cen,28.80
2023-02-16T09:26:00,cen,15.60
2023-02-16T09:28:00,cen,30.00
2023-02-16T09:30:00,cen,28.80
2023-02-16T09:31:00,cen,14.40
2023-02-16T09:33:00,cen,33.60
2023-02-16T09:34:00,cen,16.80
2023-02-16T09:35:00,cen,14.40
2023-02-16T09:37:00,cen,30.00
2023-02-16T09:39:00,cen,30.00
2023-02-16T09:41:00,cen,27.60
2023-02-16T09:42:00,cen,13.20
2023-02-16T09:44:00,cen,27.60
2023-02-16T09:46:00,cen,26.40
2023-02-16T09:48:00,cen,26.41
2023-02-16T09:50:00,cen,27.60
2023-02-16T09:52:00,cen,27.60
2023-02-16T09:54:00,cen,26.40
2023-02-16T09:55:00,cen,12.00
2023-02-16T09:56:00,cen,14.40
2023-02-16T09:57:00,cen,13.20
2023-02-16T09:59:00,cen,27.61
2023-02-16T10:01:00,cen,27.60
2023-02-16T10:03:00,cen,28.80
2023-02-16T10:04:00,cen,13.20
2023-02-16T10:06:00,cen,27.60
2023-02-16T10:08:00,cen,26.40
2023-02-16T10:09:00,cen,26.40
2023-02-16T10:10:00,cen,13.20
2023-02-16T10:11:00,cen,26.41
2023-02-16T10:13:00,cen,27.60
2023-02-16T10:15:00,cen,27.60
2023-02-16T10:16:00,cen,12.00
2023-02-16T10:18:00,cen,26.40
2023-02-16T10:20:00,cen,25.21
2023-02-16T10:22:00,cen,22.79
2023-02-16T10:24:00,cen,20.41
2023-02-16T10:26:00,cen,21.59
2023-02-16T10:27:00,cen,12.01
2023-02-16T10:29:00,cen,20.39
2023-02-16T10:31:00,cen,20.41
2023-02-16T10:32:00,cen,9.59
2023-02-16T10:34:00,cen,21.61
2023-02-16T10:35:00,cen,12.00
2023-02-16T10:37:00,cen,20.41
2023-02-16T10:39:00,cen,20.39
2023-02-16T10:41:00,cen,21.61
2023-02-16T10:43:00,cen,21.59
2023-02-16T10:45:00,cen,21.61
2023-02-16T10:46:00,cen,10.80
2023-02-16T10:48:00,cen,21.61
2023-02-16T10:50:00,cen,23.99
2023-02-16T10:52:00,cen,22.81
2023-02-16T10:54:00,cen,26.40
2023-02-16T10:55:00,cen,20.41
2023-02-16T10:57:00,cen,40.80
2023-02-16T10:59:00,cen,38.39
2023-02-16T11:01:00,cen,24.01
2023-02-16T11:03:00,cen,23.99
2023-02-16T11:05:00,cen,26.40
2023-02-16T11:07:00,cen,25.21
2023-02-16T11:08:00,cen,12.00
2023-02-16T11:10:00,cen,25.20
2023-02-16T11:12:00,cen,25.21
2023-02-16T11:14:00,cen,23.99
2023-02-16T11:15:00,cen,13.20
2023-02-16T11:17:00,cen,25.20
2023-02-16T11:19:00,cen,27.61
2023-02-16T11:21:00,cen,25.20
2023-02-16T11:23:00,cen,25.20
2023-02-16T11:24:00,cen,13.20
2023-02-16T11:26:00,cen,28.80
2023-02-16T11:28:00,cen,26.41
2023-02-16T11:29:00,cen,12.00
2023-02-16T11:31:00,cen,26.40
2023-02-16T11:33:00,cen,25.20
2023-02-16T11:35:00,cen,25.21
2023-02-16T11:37:00,cen,26.40
2023-02-16T11:39:00,cen,23.99
2023-02-16T11:41:00,cen,25.21
2023-02-16T11:43:00,cen,25.20
2023-02-16T11:44:00,cen,14.40
2023-02-16T11:46:00,cen,25.20
2023-02-16T11:47:00,cen,12.01
2023-02-16T11:49:00,cen,25.20
2023-02-16T11:51:00,cen,25.20
2023-02-16T11:53:00,cen,22.81
2023-02-16T11:55:00,cen,21.59
2023-02-16T11:56:00,cen,15.60
2023-02-16T11:58:00,cen,21.61
2023-02-16T12:00:00,cen,22.79
2023-02-16T12:02:00,cen,21.61
2023-02-16T12:04:00,cen,22.79
2023-02-16T12:06:00,cen,22.81
2023-02-16T12:08:00,cen,23.99
2023-02-16T12:10:00,cen,22.81
2023-02-16T12:12:00,cen,26.40
2023-02-16T12:14:00,cen,25.20
2023-02-16T12:15:00,cen,10.80
2023-02-16T12:17:00,cen,21.61
2023-02-16T12:18:00,cen,9.59
2023-02-16T12:19:00,cen,12.01
2023-02-16T12:21:00,cen,20.39
2023-02-16T12:22:00,cen,9.61
2023-02-16T12:24:00,cen,25.20
2023-02-16T12:25:00,cen,10.80
2023-02-16T12:27:00,cen,24.01
2023-02-16T12:29:00,cen,22.79
2023-02-16T12:30:00,cen,12.00
2023-02-16T12:32:00,cen,24.01
2023-02-16T12:34:00,cen,21.59
2023-02-16T12:36:00,cen,22.81
2023-02-16T12:38:00,cen,22.79
2023-02-16T12:39:00,cen,12.00
2023-02-16T12:40:00,cen,12.01
2023-02-16T12:42:00,cen,25.20
2023-02-16T12:44:00,cen,25.20
2023-02-16T12:46:00,cen,24.01
2023-02-16T12:48:00,cen,25.20
2023-02-16T12:50:00,cen,23.99
2023-02-16T12:52:00,cen,24.01
2023-02-16T12:54:00,cen,30.00
2023-02-16T12:56:00,cen,43.20
2023-02-16T12:58:00,cen,44.40
2023-02-16T13:00:00,cen,27.60
2023-02-16T13:02:00,cen,28.80
2023-02-16T13:03:00,cen,10.80
2023-02-16T13:05:00,cen,25.21
2023-02-16T13:06:00,cen,10.80
2023-02-16T13:08:00,cen,23.99
2023-02-16T13:09:00,cen,12.01
2023-02-16T13:10:00,cen,10.80
2023-02-16T13:12:00,cen,22.79
2023-02-16T13:13:00,cen,12.01
2023-02-16T13:15:00,cen,22.79
2023-02-16T13:16:00,cen,10.80
2023-02-16T13:17:00,cen,12.01
2023-02-16T13:19:00,cen,21.59
2023-02-16T13:21:00,cen,25.20
2023-02-16T13:23:00,cen,26.41
2023-02-16T13:25:00,cen,22.79
2023-02-16T13:26:00,cen,12.00
2023-02-16T13:28:00,cen,22.81
2023-02-16T13:30:00,cen,22.79
2023-02-16T13:32:00,cen,21.61
2023-02-16T13:34:00,cen,25.20
2023-02-16T13:36:00,cen,24.01
2023-02-16T13:38:00,cen,25.20
2023-02-16T13:39:00,cen,12.00
2023-02-16T13:40:00,cen,12.00
2023-02-16T13:41:00,cen,12.01
2023-02-16T13:43:00,cen,22.79
2023-02-16T13:45:00,cen,25.20
2023-02-16T13:46:00,cen,13.20
2023-02-16T13:48:00,cen,25.21
2023-02-16T13:49:00,cen,13.20
2023-02-16T13:51:00,cen,25.20
2023-02-16T13:53:00,cen,26.40
2023-02-16T13:55:00,cen,30.00
2023-02-16T13:56:00,cen,13.21
2023-02-16T13:58:00,cen,25.20
2023-02-16T14:00:00,cen,30.00
2023-02-16T14:02:00,cen,26.40
2023-02-16T14:04:00,cen,26.40
2023-02-16T14:06:00,cen,25.21
2023-02-16T14:07:00,cen,13.20
2023-02-16T14:09:00,cen,25.20
2023-02-16T14:10:00,cen,12.00
2023-02-16T14:12:00,cen,30.00
2023-02-16T14:13:00,cen,12.01
2023-02-16T14:15:00,cen,22.79
2023-02-16T14:16:00,cen,13.20
2023-02-16T14:17:00,cen,10.80
2023-02-16T14:18:00,cen,12.01
2023-02-16T14:20:00,cen,21.59
2023-02-16T14:22:00,cen,22.81
2023-02-16T14:24:00,cen,23.99
2023-02-16T14:26:00,cen,23.99
2023-02-16T14:28:00,cen,22.81
2023-02-16T14:30:00,cen,21.59
2023-02-16T14:31:00,cen,12.01
2023-02-16T14:33:00,cen,22.79
2023-02-16T14:35:00,cen,28.80
2023-02-16T14:36:00,cen,20.41
2023-02-16T14:38:00,cen,33.60
2023-02-16T14:40:00,cen,40.80
2023-02-16T14:42:00,cen,31.20
2023-02-16T14:43:00,cen,12.00
2023-02-16T14:45:00,cen,23.99
2023-02-16T14:46:00,cen,12.01
2023-02-16T14:48:00,cen,25.20
2023-02-16T14:50:00,cen,23.99
2023-02-16T14:52:00,cen,24.01
2023-02-16T14:53:00,cen,12.00
2023-02-16T14:54:00,cen,12.00
2023-02-16T14:56:00,cen,24.01
2023-02-16T14:58:00,cen,25.20
2023-02-16T14:59:00,cen,12.00
2023-02-16T15:01:00,cen,23.99
2023-02-16T15:03:00,cen,24.01
2023-02-16T15:05:00,cen,22.79
2023-02-16T15:07:00,cen,26.41
2023-02-16T15:09:00,cen,21.59
2023-02-16T15:11:00,cen,21.61
2023-02-16T15:13:00,cen,21.59
2023-02-16T15:15:00,cen,24.01
2023-02-16T15:17:00,cen,21.59
2023-02-16T15:19:00,cen,24.01
2023-02-16T15:21:00,cen,23.99
2023-02-16T15:23:00,cen,25.20
2023-02-16T15:25:00,cen,25.21
2023-02-16T15:27:00,cen,25.20
2023-02-16T15:29:00,cen,23.99
2023-02-16T15:31:00,cen,24.01
2023-02-16T15:32:00,cen,12.00
2023-02-16T15:34:00,cen,25.20
2023-02-16T15:36:00,cen,24.01
2023-02-16T15:38:00,cen,22.79
2023-02-16T15:40:00,cen,22.81
2023-02-16T15:42:00,cen,21.59
2023-02-16T15:43:00,cen,9.61
2023-02-16T15:44:00,cen,9.59
2023-02-16T15:46:00,cen,21.61
2023-02-16T15:48:00,cen,21.59
2023-02-16T15:49:00,cen,9.59
2023-02-16T15:51:00,cen,20.41
2023-02-16T15:53:00,cen,21.61
2023-02-16T15:55:00,cen,21.59
2023-02-16T15:57:00,cen,20.41
2023-02-16T15:59:00,cen,20.39
2023-02-16T16:00:00,cen,10.81
2023-02-16T16:01:00,cen,10.80
2023-02-16T16:03:00,cen,27.60
2023-02-16T16:04:00,cen,10.80
2023-02-16T16:06:00,cen,21.61
2023-02-16T16:08:00,cen,21.61
2023-02-16T16:10:00,cen,22.79
2023-02-16T16:11:00,cen,10.80
2023-02-16T16:13:00,cen,20.41
2023-02-16T16:15:00,cen,21.61
2023-02-16T16:17:00,cen,19.19
2023-02-16T16:19:00,cen,19.20
2023-02-16T16:20:00,cen,10.80
2023-02-16T16:22:00,cen,19.20
2023-02-16T16:24:00,cen,20.41
2023-02-16T16:25:00,cen,9.59
2023-02-16T16:27:00,cen,20.41
2023-02-16T16:29:00,cen,19.19
2023-02-16T16:31:00,cen,20.41
2023-02-16T16:32:00,cen,9.59
2023-02-16T16:33:00,cen,9.61
2023-02-16T16:35:00,cen,20.39
2023-02-16T16:37:00,cen,16.80
2023-02-16T16:39:00,cen,15.60
2023-02-16T16:40:00,cen,8.41
2023-02-16T16:42:00,cen,15.60
2023-02-16T16:43:00,cen,7.19
2023-02-16T16:45:00,cen,16.80
2023-02-16T16:47:00,cen,16.80
2023-02-16T16:49:00,cen,15.60
2023-02-16T16:51:00,cen,16.80
2023-02-16T16:52:00,cen,8.39
2023-02-16T16:55:00,cen,16.80
2023-02-16T16:57:00,cen,25.20
2023-02-16T16:59:00,cen,16.80
2023-02-16T17:00:00,cen,8.41
2023-02-16T17:02:00,cen,15.60
2023-02-16T17:04:00,cen,19.19
2023-02-16T17:05:00,cen,8.41
2023-02-16T17:07:00,cen,20.39
2023-02-16T17:09:00,cen,33.60
2023-02-16T17:11:00,cen,32.40
2023-02-16T17:13:00,cen,20.41
2023-02-16T17:14:00,cen,7.19
2023-02-16T17:16:00,cen,14.40
2023-02-16T17:18:00,cen,14.40
2023-02-16T17:20:00,cen,15.60
2023-02-16T17:22:00,cen,14.40
2023-02-16T17:24:00,cen,14.40
2023-02-16T17:26:00,cen,14.40
2023-02-16T17:28:00,cen,14.40
2023-02-16T17:29:00,cen,8.41
2023-02-16T17:31:00,cen,14.40
2023-02-16T17:33:00,cen,14.40
2023-02-16T17:35:00,cen,14.40
2023-02-16T17:36:00,cen,8.39
2023-02-16T17:38:00,cen,13.21
2023-02-16T17:40:00,cen,14.40
2023-02-16T17:42:00,cen,15.60
2023-02-16T17:44:00,cen,14.40
2023-02-16T17:45:00,cen,7.19
2023-02-16T17:47:00,cen,14.40
2023-02-16T17:48:00,cen,8.41
2023-02-16T17:50:00,cen,14.40
2023-02-16T17:52:00,cen,14.40
2023-02-16T17:53:00,cen,7.19
2023-02-16T17:55:00,cen,16.80
2023-02-16T17:56:00,cen,8.39
2023-02-16T17:58:00,cen,14.41
2023-02-16T18:00:00,cen,14.40
2023-02-16T18:02:00,cen,14.40
2023-02-16T18:04:00,cen,14.40
2023-02-16T18:06:00,cen,14.40
2023-02-16T18:08:00,cen,13.20
2023-02-16T18:10:00,cen,15.60
2023-02-16T18:11:00,cen,5.99
2023-02-16T18:13:00,cen,13.20
2023-02-16T18:15:00,cen,14.41
2023-02-16T18:17:00,cen,14.40
2023-02-16T18:18:00,cen,8.39
2023-02-16T18:20:00,cen,13.20
2023-02-16T18:22:00,cen,14.40
2023-02-16T18:24:00,cen,14.40
2023-02-16T18:25:00,cen,6.01
2023-02-16T18:27:00,cen,15.60
2023-02-16T18:29:00,cen,15.60
2023-02-16T18:30:00,cen,7.19
2023-02-16T18:32:00,cen,16.80
2023-02-16T18:33:00,cen,7.21
2023-02-16T18:35:00,cen,14.40
2023-02-16T18:37:00,cen,14.40
2023-02-16T18:39:00,cen,16.80
2023-02-16T18:41:00,cen,14.40
2023-02-16T18:42:00,cen,5.99
2023-02-16T18:44:00,cen,14.40
2023-02-16T18:46:00,cen,14.40
2023-02-16T18:47:00,cen,7.21
2023-02-16T18:49:00,cen,14.40
2023-02-16T18:51:00,cen,15.60
2023-02-16T18:53:00,cen,15.60
2023-02-16T18:55:00,cen,14.40
2023-02-16T18:56:00,cen,7.19
2023-02-16T18:58:00,cen,15.60
2023-02-16T19:00:00,cen,15.60
2023-02-16T19:02:00,cen,14.40
2023-02-16T19:03:00,cen,7.21
2023-02-16T19:05:00,cen,14.40
2023-02-16T19:07:00,cen,15.60
2023-02-16T19:10:00,cen,19.20
2023-02-16T19:12:00,cen,14.40
2023-02-16T19:13:00,cen,8.39
2023-02-16T19:15:00,cen,12.00
2023-02-16T19:17:00,cen,8.41
2023-02-16T19:19:00,cen,8.39
2023-02-16T19:21:00,cen,9.59
2023-02-16T19:23:00,cen,10.81
2023-02-16T19:25:00,cen,8.39
2023-02-16T19:27:00,cen,9.61
2023-02-16T19:29:00,cen,9.59
2023-02-16T19:30:00,cen,4.80
2023-02-16T19:32:00,cen,9.59
2023-02-16T19:33:00,cen,4.80
2023-02-16T19:35:00,cen,10.80
2023-02-16T19:37:00,cen,10.80
2023-02-16T19:38:00,cen,4.80
2023-02-16T19:40:00,cen,9.59
2023-02-16T19:41:00,cen,4.80
2023-02-16T19:43:00,cen,10.80
2023-02-16T19:44:00,cen,6.01
2023-02-16T19:45:00,cen,4.79
2023-02-16T19:47:00,cen,9.61
2023-02-16T19:48:00,cen,3.60
2023-02-16T19:50:00,cen,9.59
2023-02-16T19:51:00,cen,4.80
2023-02-16T19:53:00,cen,8.39
2023-02-16T19:54:00,cen,4.80
2023-02-16T19:56:00,cen,9.59
2023-02-16T19:58:00,cen,12.00
2023-02-16T20:00:00,cen,9.61
2023-02-16T20:01:00,cen,4.79
2023-02-16T20:03:00,cen,9.61
2023-02-16T20:05:00,cen,9.59
2023-02-16T20:07:00,cen,9.59
2023-02-16T20:08:00,cen,4.80
2023-02-16T20:10:00,cen,8.41
2023-02-16T20:12:00,cen,9.59
2023-02-16T20:14:00,cen,7.19
2023-02-16T20:15:00,cen,12.01
2023-02-16T20:16:00,cen,13.20
2023-02-16T20:18:00,cen,25.20
2023-02-16T20:20:00,cen,20.41
2023-02-16T20:22:00,cen,8.39
2023-02-16T20:23:00,cen,4.80
2023-02-16T20:25:00,cen,8.39
2023-02-16T20:26:00,cen,4.80
2023-02-16T20:28:00,cen,8.39
2023-02-16T20:30:00,cen,8.41
2023-02-16T20:31:00,cen,3.60
2023-02-16T20:33:00,cen,10.80
2023-02-16T20:35:00,cen,10.80
2023-02-16T20:37:00,cen,9.61
2023-02-16T20:38:00,cen,4.79
2023-02-16T20:40:00,cen,9.61
2023-02-16T20:41:00,cen,5.99
2023-02-16T20:43:00,cen,9.61
2023-02-16T20:45:00,cen,9.59
2023-02-16T20:47:00,cen,9.59
2023-02-16T20:49:00,cen,8.41
2023-02-16T20:51:00,cen,8.39
2023-02-16T20:52:00,cen,3.60
2023-02-16T20:54:00,cen,9.59
2023-02-16T20:55:00,cen,3.60
2023-02-16T20:57:00,cen,7.21
2023-02-16T20:58:00,cen,4.79
2023-02-16T21:00:00,cen,7.21
2023-02-16T21:02:00,cen,8.39
2023-02-16T21:04:00,cen,7.21
2023-02-16T21:06:00,cen,8.39
2023-02-16T21:07:00,cen,3.60
2023-02-16T21:09:00,cen,8.39
2023-02-16T21:10:00,cen,4.80
2023-02-16T21:12:00,cen,8.39
2023-02-16T21:13:00,cen,3.60
2023-02-16T21:15:00,cen,9.61
2023-02-16T21:16:00,cen,4.79
2023-02-16T21:18:00,cen,10.81
2023-02-16T21:20:00,cen,9.59
2023-02-16T21:22:00,cen,10.80
2023-02-16T21:24:00,cen,9.61
2023-02-16T21:26:00,cen,9.59
2023-02-16T21:27:00,cen,4.80
2023-02-16T21:29:00,cen,9.59
2023-02-16T21:31:00,cen,9.59
2023-02-16T21:33:00,cen,8.41
2023-02-16T21:35:00,cen,8.39
2023-02-16T21:37:00,cen,9.61
2023-02-16T21:38:00,cen,4.79
2023-02-16T21:40:00,cen,9.61
2023-02-16T21:42:00,cen,9.59
2023-02-16T21:43:00,cen,3.60
2023-02-16T21:45:00,cen,9.59
2023-02-16T21:46:00,cen,4.80
2023-02-16T21:47:00,cen,3.59
2023-02-16T21:49:00,cen,8.41
2023-02-16T21:51:00,cen,9.59
2023-02-16T21:52:00,cen,6.01
2023-02-16T21:54:00,cen,8.39
2023-02-16T21:56:00,cen,7.21
2023-02-16T21:58:00,cen,8.39
2023-02-16T22:00:00,cen,10.81
2023-02-16T22:02:00,cen,9.59
2023-02-16T22:03:00,cen,4.80
2023-02-16T22:04:00,cen,3.59
2023-02-16T22:06:00,cen,8.41
2023-02-16T22:07:00,cen,5.99
2023-02-16T22:09:00,cen,7.21
2023-02-16T22:10:00,cen,4.80
2023-02-16T22:11:00,cen,3.59
2023-02-16T22:13:00,cen,8.41
2023-02-16T22:14:00,cen,4.79
2023-02-16T22:16:00,cen,8.41
2023-02-16T22:18:00,cen,8.39
2023-02-16T22:20:00,cen,8.41
2023-02-16T22:22:00,cen,9.59
2023-02-16T22:24:00,cen,8.41
2023-02-16T22:25:00,cen,4.79
2023-02-16T22:27:00,cen,7.21
2023-02-16T22:29:00,cen,9.59
2023-02-16T22:31:00,cen,8.41
2023-02-16T22:32:00,cen,4.79
2023-02-16T22:34:00,cen,7.21
2023-02-16T22:36:00,cen,9.59
2023-02-16T22:38:00,cen,8.41
2023-02-16T22:40:00,cen,8.39
2023-02-16T22:41:00,cen,8.39
2023-02-16T22:42:00,cen,7.21
2023-02-16T22:43:00,cen,4.79
2023-02-16T22:45:00,cen,8.41
2023-02-16T22:47:00,cen,7.19
2023-02-16T22:49:00,cen,7.21
2023-02-16T22:50:00,cen,3.59
2023-02-16T22:51:00,cen,4.80